Waarnemingen

Advertentie
Mijn weer
Wick Airport (AWS), Groot Brittannië (3075): temperatuur & dauwpunt: 16.02.2018 03:00:00 - 22.02.2018 03:00:00 (GMT)Wick Airport (AWS), Groot Brittannië (3075): temperatuur -20cm: 16.02.2018 03:00:00 - 22.02.2018 03:00:00 (GMT)Wick Airport (AWS), Groot Brittannië (3075): windsnelheid & windstoten: 16.02.2018 03:00:00 - 22.02.2018 03:00:00 (GMT)Wick Airport (AWS), Groot Brittannië (3075): windrichting: 16.02.2018 03:00:00 - 22.02.2018 03:00:00 (GMT)Wick Airport (AWS), Groot Brittannië (3075): luchtdruk: 16.02.2018 03:00:00 - 22.02.2018 03:00:00 (GMT)Wick Airport (AWS), Groot Brittannië (3075): zicht: 16.02.2018 03:00:00 - 22.02.2018 03:00:00 (GMT)Wick Airport (AWS), Groot Brittannië (3075): neerslag: 16.02.2018 03:00:00 - 22.02.2018 03:00:00 (GMT)
Datum & Tijd tt [°C] td [°C] tt -20cm [°C] ff [km/u] ff [kn] fx [km/u] fx [kn] dd ppp [hPa] vv [km] rr [mm]
22.02.2018 03:00:00 - - - - - - - - - - -
22.02.2018 02:00:00 3,2 1,6 - 13 7 - - Z 1025,0 24 0,0
22.02.2018 01:00:00 3,6 1,8 - 13 7 - - Z 1025,5 19 0,0
22.02.2018 00:00:00 4,2 2,0 - 11 6 - - Z 1025,7 17 0,0
21.02.2018 23:00:00 5,0 2,5 - 16 9 - - Z 1025,7 18 0,0
21.02.2018 22:00:00 5,2 3,3 - 16 9 - - ZZO 1026,1 15 0,0
21.02.2018 21:00:00 5,1 3,6 - 18 10 - - ZZO 1026,4 14 0,0
21.02.2018 20:00:00 4,6 3,1 - 9 5 - - ZZO 1026,8 15 0,0
21.02.2018 19:00:00 4,2 2,7 - 9 5 - - ZO 1027,0 17 0,0
21.02.2018 18:00:00 4,1 2,9 - 9 5 - - ZO 1027,0 13 0,0
21.02.2018 17:00:00 4,7 3,1 - 9 5 - - Z 1027,1 13 0,0
21.02.2018 16:00:00 5,6 3,0 - 11 6 - - Z 1027,3 22 0,0
21.02.2018 15:00:00 6,4 1,8 - 8 4 - - ZO 1027,5 19 0,0
21.02.2018 14:00:00 7,0 2,6 - 11 6 - - ZZO 1028,1 30 0,0
21.02.2018 13:00:00 6,6 3,1 - 11 6 - - ZO 1028,3 25 0,0
21.02.2018 12:00:00 8,2 3,3 - 4 2 - - Z 1028,5 13 0,0
21.02.2018 11:00:00 5,3 2,7 - 8 4 - - ZZW 1029,0 24 0,0
21.02.2018 10:00:00 2,5 1,1 - 8 4 - - WZW 1029,3 17 0,0
21.02.2018 09:00:00 1,2 0,0 3,5 8 4 - - W 1029,5 24 0,0
21.02.2018 08:00:00 0,1 -0,8 - 9 5 - - W 1029,3 19 0,0
21.02.2018 07:00:00 -0,3 -1,2 - 13 7 - - W 1029,2 19 0,0
21.02.2018 06:00:00 0,2 -0,9 - 9 5 - - W 1029,1 18 0,0
21.02.2018 05:00:00 1,6 0,5 - 9 5 - - ZW 1029,1 22 0,0
21.02.2018 04:00:00 0,6 -0,4 - 11 6 - - W 1029,0 28 0,0
21.02.2018 03:00:00 0,9 0,2 - 18 10 - - W 1029,1 35 0,0
21.02.2018 02:00:00 0,6 0,0 - 16 9 - - W 1029,5 12 0,0
21.02.2018 01:00:00 1,1 0,5 - 15 8 - - W 1029,6 12 0,0
21.02.2018 00:00:00 1,2 0,5 - 13 7 - - W 1029,7 13 0,0
20.02.2018 23:00:00 1,0 0,5 - 11 6 - - WZW 1028,9 12 0,0
20.02.2018 22:00:00 1,0 0,5 - 15 8 - - W 1028,8 12 0,0
20.02.2018 21:00:00 1,6 0,9 - 11 6 - - WZW 1028,5 12 0,0
20.02.2018 20:00:00 2,2 1,4 - 15 8 - - W 1028,3 10 0,0
20.02.2018 19:00:00 2,8 2,1 - 13 7 - - W 1027,8 11 0,0
20.02.2018 18:00:00 3,5 2,5 - 9 5 - - W 1027,3 11 0,0
20.02.2018 17:00:00 4,5 3,0 - 15 8 - - W 1026,6 15 0,0
20.02.2018 16:00:00 5,4 2,8 - 24 13 - - NW 1026,2 13 0,0
20.02.2018 15:00:00 7,6 4,4 - 28 15 - - WNW 1025,6 11 0,0
20.02.2018 14:00:00 7,2 4,7 - 29 16 - - WNW 1025,3 12 0,0
20.02.2018 13:00:00 8,0 5,7 - 29 16 - - WNW 1024,5 14 0,0
20.02.2018 12:00:00 7,8 5,5 - 29 16 - - WNW 1023,6 15 0,0
20.02.2018 11:00:00 7,7 6,4 - 26 14 - - WNW 1022,9 15 0,0
20.02.2018 10:00:00 6,6 6,1 - 22 12 - - W 1022,4 11 0,0
20.02.2018 09:00:00 4,4 4,2 3,5 15 8 - - WNW 1021,7 11 0,0
20.02.2018 08:00:00 3,8 3,7 - 21 11 - - W 1020,8 11 0,2
20.02.2018 07:00:00 3,3 3,1 - 18 10 - - W 1019,9 14 0,0
20.02.2018 06:00:00 3,5 3,2 - 18 10 - - W 1019,1 22 0,0
20.02.2018 05:00:00 3,9 3,3 - 15 8 - - W 1018,3 30 0,0
20.02.2018 04:00:00 4,5 4,3 - 8 4 - - ZW 1018,0 19 0,2
20.02.2018 03:00:00 4,7 4,3 - 11 6 - - NW 1017,5 14 0,4
20.02.2018 02:00:00 4,8 4,7 - 18 10 - - WNW 1017,2 14 0,8
20.02.2018 01:00:00 4,9 4,9 - 28 15 - - W 1016,8 7 0,6
20.02.2018 00:00:00 5,4 5,4 - 22 12 - - WNW 1016,4 3,8 0,4
19.02.2018 23:00:00 6,3 6,3 - 15 8 - - W 1016,0 3,1 1,6
19.02.2018 22:00:00 6,2 6,2 - 13 7 - - ZZO 1015,4 4,8 0,0
19.02.2018 21:00:00 6,2 6,2 - 16 9 - - ZZO 1015,2 6 0,0
19.02.2018 20:00:00 6,2 6,2 - 15 8 - - ZZO 1015,6 2,8 0,0
19.02.2018 19:00:00 6,2 6,2 - 16 9 - - ZZO 1015,4 0,8 0,0
19.02.2018 18:00:00 6,2 6,2 - 15 8 - - ZO 1015,3 0,3 0,0
19.02.2018 17:00:00 6,2 6,2 - 15 8 - - ZO 1015,3 1,3 0,0
19.02.2018 16:00:00 6,3 6,3 - 15 8 - - ZO 1015,3 10 0,0
19.02.2018 15:00:00 6,1 6,1 - 15 8 - - ZZO 1015,4 7 0,2
19.02.2018 14:00:00 6,1 6,1 - 16 9 - - ZZO 1015,4 3,0 0,6
19.02.2018 13:00:00 5,9 5,9 - 16 9 - - ZZO 1015,3 2,7 0,4
19.02.2018 12:00:00 5,7 5,7 - 16 9 - - ZO 1015,0 3,3 0,2
19.02.2018 11:00:00 5,8 5,8 - 16 9 - - ZZO 1014,8 3,5 0,4
19.02.2018 10:00:00 5,7 5,7 - 15 8 - - ZZO 1014,7 2,6 0,4
19.02.2018 09:00:00 5,6 5,6 3,0 16 9 - - ZO 1014,3 4,0 0,2
19.02.2018 08:00:00 5,6 5,6 - 13 7 - - ZZO 1013,9 4,7 0,0
19.02.2018 07:00:00 5,5 5,3 - 15 8 - - ZO 1013,6 5 0,4
19.02.2018 06:00:00 5,5 5,2 - 15 8 - - ZO 1013,2 9 0,0
19.02.2018 05:00:00 5,5 5,1 - 15 8 - - OZO 1012,8 8 0,0
19.02.2018 04:00:00 5,5 4,9 - 11 6 - - OZO 1012,9 10 0,0
19.02.2018 03:00:00 5,4 4,8 - 11 6 - - ZO 1012,6 11 0,0
19.02.2018 02:00:00 5,3 4,6 - 13 7 - - ZO 1012,6 11 0,0
19.02.2018 01:00:00 5,2 4,4 - 11 6 - - ZO 1012,9 12 0,0
19.02.2018 00:00:00 5,2 4,3 - 13 7 - - ZO 1013,2 15 0,0
18.02.2018 23:00:00 5,2 4,2 - 11 6 - - ZO 1013,2 24 0,0
18.02.2018 22:00:00 5,4 4,0 - 11 6 - - ZO 1013,4 16 0,0
18.02.2018 21:00:00 5,7 3,9 - 13 7 - - ZO 1013,6 35 0,0
18.02.2018 20:00:00 5,7 3,9 - 15 8 - - ZO 1014,0 30 0,0
18.02.2018 19:00:00 5,6 3,6 - 15 8 - - ZO 1014,3 45 0,0
18.02.2018 18:00:00 5,4 3,4 - 13 7 - - ZZO 1014,6 45 0,0
18.02.2018 17:00:00 5,5 2,4 - 13 7 - - ZO 1014,9 40 0,0
18.02.2018 16:00:00 5,6 2,5 - 11 6 - - ZZO 1015,0 27 0,0
18.02.2018 15:00:00 5,5 2,8 - 11 6 - - ZZO 1015,5 27 0,0
18.02.2018 14:00:00 5,5 3,1 - 11 6 - - Z 1016,1 40 0,0
18.02.2018 13:00:00 5,9 3,4 - 16 9 - - ZZO 1016,3 30 0,0
18.02.2018 12:00:00 5,2 2,6 - 13 7 - - Z 1016,5 35 0,0
18.02.2018 11:00:00 4,5 1,7 - 8 4 - - Z 1016,6 50 0,0
18.02.2018 10:00:00 3,2 0,9 - 9 5 - - ZZW 1016,4 45 0,0
18.02.2018 09:00:00 2,6 0,7 2,9 8 4 - - ZW 1016,6 50 0,0
18.02.2018 08:00:00 2,0 0,4 - 8 4 - - ZZO 1016,6 45 0,0
18.02.2018 07:00:00 2,3 -0,1 - 11 6 - - Z 1016,9 50 0,0
18.02.2018 06:00:00 2,2 -0,7 - 8 4 - - ZZW 1017,3 45 0,0
18.02.2018 05:00:00 1,5 -0,6 - 8 4 - - ZW 1016,8 45 0,0
18.02.2018 04:00:00 1,2 -0,8 - 8 4 - - WZW 1016,6 45 0,0
18.02.2018 03:00:00 1,4 -0,2 - 11 6 - - WZW 1016,8 50 0,0
18.02.2018 02:00:00 0,7 -0,9 - 11 6 - - WZW 1016,4 45 0,0
18.02.2018 01:00:00 0,8 -0,9 - 11 6 - - WZW 1016,2 45 0,0
18.02.2018 00:00:00 1,4 -0,7 - 8 4 - - WZW 1016,1 45 0,0
17.02.2018 23:00:00 1,9 0,1 - 11 6 - - WZW 1016,0 40 0,0
17.02.2018 22:00:00 1,9 -0,1 - 15 8 - - ZW 1015,4 45 0,0
17.02.2018 21:00:00 1,7 0,2 - 13 7 - - ZW 1014,9 50 0,0
17.02.2018 20:00:00 1,8 0,2 - 13 7 - - ZW 1014,7 45 0,0
17.02.2018 19:00:00 2,2 0,2 - 15 8 - - ZW 1014,4 45 0,0
17.02.2018 18:00:00 3,3 0,7 - 13 7 - - ZW 1014,0 45 0,0
17.02.2018 17:00:00 5,3 1,2 - 16 9 - - WZW 1013,2 50 0,0
17.02.2018 16:00:00 5,8 0,5 - 26 14 - - WZW 1012,5 45 0,0
17.02.2018 15:00:00 7,3 1,0 - 28 15 - - ZW 1012,1 24 0,0
17.02.2018 14:00:00 7,2 0,7 - 16 9 - - ZW 1011,8 30 0,0
17.02.2018 13:00:00 6,8 1,9 - 22 12 - - ZZW 1011,8 50 0,0
17.02.2018 12:00:00 6,3 2,8 - 16 9 - - ZZW 1011,8 50 0,0
17.02.2018 11:00:00 5,5 2,8 - 22 12 - - ZZW 1011,3 40 0,0
17.02.2018 10:00:00 4,6 2,4 - 24 13 - - Z 1010,8 50 0,0
17.02.2018 09:00:00 4,0 2,4 2,7 24 13 - - Z 1010,8 40 0,0
17.02.2018 08:00:00 3,9 2,5 - 21 11 - - Z 1010,5 40 0,0
17.02.2018 07:00:00 3,8 2,5 - 18 10 - - Z 1010,5 35 0,0
17.02.2018 06:00:00 3,7 2,2 - 22 12 - - Z 1010,3 35 0,0
17.02.2018 05:00:00 4,2 2,5 - 22 12 - - Z 1010,2 35 0,0
17.02.2018 04:00:00 4,7 2,7 - 21 11 - - Z 1010,2 45 0,0
17.02.2018 03:00:00 5,4 2,8 - 24 13 - - Z 1010,1 40 0,0
17.02.2018 02:00:00 5,8 3,1 - 24 13 - - Z 1010,1 24 0,0
17.02.2018 01:00:00 6,1 2,6 - 26 14 52 28 Z 1010,1 35 0,0
17.02.2018 00:00:00 5,9 2,8 - 37 20 57 31 ZZO 1010,0 23 0,0
16.02.2018 23:00:00 6,0 3,1 - 35 19 52 28 ZZO 1010,4 18 0,0
16.02.2018 22:00:00 5,7 3,3 - 37 20 55 30 ZZO 1010,6 20 0,0
16.02.2018 21:00:00 5,7 2,6 - 34 18 52 28 ZZO 1011,3 35 0,0
16.02.2018 20:00:00 5,8 1,9 - 34 18 46 25 ZZO 1011,8 35 0,0
16.02.2018 19:00:00 5,9 1,5 - 29 16 - - Z 1012,4 35 0,0
16.02.2018 18:00:00 5,5 1,2 - 29 16 - - Z 1012,4 45 0,0
16.02.2018 17:00:00 5,0 1,8 - 28 15 - - ZZW 1012,4 40 0,0
16.02.2018 16:00:00 5,7 1,8 - 26 14 - - ZZW 1012,7 45 0,0
16.02.2018 15:00:00 6,0 1,5 - 29 16 - - ZZW 1012,8 35 0,0
16.02.2018 14:00:00 5,5 1,5 - 21 11 - - Z 1012,9 50 0,0
16.02.2018 13:00:00 5,7 1,8 - 24 13 - - ZZW 1012,8 40 0,0
16.02.2018 12:00:00 5,5 1,3 - 24 13 - - ZZW 1012,5 12 0,0
16.02.2018 11:00:00 4,1 0,3 - 18 10 - - ZZW 1011,9 35 0,0
16.02.2018 10:00:00 2,8 -0,2 - 24 13 - - ZZW 1011,3 29 0,0
16.02.2018 09:00:00 2,0 -1,1 2,5 22 12 - - ZW 1010,4 40 0,0
16.02.2018 08:00:00 2,1 -1,6 - 16 9 - - ZW 1009,7 40 0,0
16.02.2018 07:00:00 1,8 -0,6 - 13 7 - - ZZW 1008,8 28 0,0
16.02.2018 06:00:00 2,4 -0,8 - 22 12 - - ZW 1008,3 40 0,0
16.02.2018 05:00:00 2,4 -0,6 - 24 13 - - ZW 1007,7 40 0,0
16.02.2018 04:00:00 2,3 -0,5 - 29 16 - - ZW 1006,5 45 0,0
16.02.2018 03:00:00 2,5 -0,2 - 29 16 - - WZW 1005,8 40 0,0

tt = temperatuur
td = dauwpunt
tt -20cm = temperatuur -20cm
ff = windsnelheid
fx = windstoten
dd = windrichting
ppp = luchtdruk
vv = zicht
rr = neerslag

Weerstations in de omgeving